Regional Weather Roundup
Issued by NWS

Home | Current Version | Previous Version | Graphics & Text | Print | Product List | Glossary On
Versions: 1 2 3 4 5 6 7 8 9 10 11 12 13 14 15 16 17 18 19 20 21 22 23 24 25 26 27 28 29 30 31 32 33 34 35 36 37 38 39 40 41 42 43 44 45 46 47 48 49 50
000
ASUS45 KCYS 231910
RWRWY

WYOMING REGIONAL WEATHER ROUNDUP
NATIONAL WEATHER SERVICE CHEYENNE WY
100 PM MDT WED JUL 23 2014

NOTE:  "FAIR" INDICATES FEW OR NO CLOUDS BELOW 12,000 FEET
WITH NO SIGNIFICANT WEATHER AND/OR OBSTRUCTIONS TO VISIBILITY.

WYZ001-232000-
YELLOWSTONE NATIONAL PARK

CITY           SKY/WX    TMP DP  RH WIND       PRES   REMARKS
LK YELLOWSTONE   N/A     77  32  19 VRB6      30.41F
W YELLOWSTONE  NOT AVBL

$$
WYZ002>013-054>058-071-098>099-232000-
NORTHERN WYOMING

CITY           SKY/WX    TMP DP  RH WIND       PRES   REMARKS
JACKSON        SUNNY     86  34  15 CALM      30.29F
CODY           NOT AVBL
GREYBULL       SUNNY     91  50  24 S13       30.07F
WORLAND        SUNNY     92  47  21 VRB5      30.09F
SHERIDAN       SUNNY     87  60  40 SE7       30.10F
BUFFALO        SUNNY     86  58  38 SE12G20   30.19F
GILLETTE       SUNNY     87  61  41 S16G24    30.18F
HULETT         FAIR      82  63  51 MISG      30.23
NEWCASTLE      FAIR      86  55  35 MISG      30.22

$$
WYZ014>020-022>026-101>103-232000-
CENTRAL WYOMING

CITY           SKY/WX    TMP DP  RH WIND       PRES   REMARKS
BIG PINEY      MOSUNNY   85  27  12 W7        30.36F
PINEDALE       CLEAR     82  30  15 S10G16    30.37F
DUBOIS         FAIR      82  30  15 W16G38    30.34F
LANDER         SUNNY     85  49  28 VRB3      30.22F
RIVERTON       SUNNY     83  50  31 S6        30.22F
CASPER         SUNNY     90  53  28 MISG      30.21F
DOUGLAS        SUNNY     86  62  44 SE24G32   30.23F

$$
WYZ021-027>030-104>119-232000-
SOUTHERN WYOMING

CITY           SKY/WX    TMP DP  RH WIND       PRES   REMARKS
EVANSTON       MOSUNNY   87  38  17 SW17      30.37F
KEMMERER       PTCLDY    86  30  13 SW16G25   30.38F
FORT BRIDGER   FAIR      91  33  12 W14G31    30.37F
ROCK SPRINGS   MOSUNNY   92  23   8 W12G20    30.32F
DIXON          FAIR      90  31  12 SW12G18   30.37F
RAWLINS        SUNNY     94  25   8 S18G25    30.33F
SARATOGA       FAIR      90  28  11 S8        30.37F
LARAMIE        SUNNY     84  49  29 S8        30.41F
CHEYENNE       SUNNY     78  61  55 S13G26    30.38F
TORRINGTON     MOSUNNY   83  64  52 SE21G29   30.23F
PINE BLUFFS    FAIR      79  61  53 S14G22    30.34F

$$



USA.gov is the U.S. government's official web portal to all federal, state and local government web resources and services.